RYR3842 EGSS-LERS

Flight info

Callsign RYR3842
Flight time 1h 40m
Altitude 33000
Route NUGBO M183 SILVA Q41 COWLY UT71 VAPID UN859 SOPIL DCT BALAN DCT EVPOK DCT NARAK DCT GAI DCT LOMRA DCT ROCAN DCT PUMAL N31 BERGA
Aircraft B738/M-SDE2E3FGHIRWXY/LB1

Departure

Time 2026-04-23 05:21
Airport London Stansted Airport (EGSS)

Arrival

Time 2026-04-23 07:01
Airport Reus Airport (LERS)
Time Latitude Longitude Altitude Speed Heading
2026-04-23 04:49 51.89427 0.26161 354 ft 0 kts 43°
2026-04-23 05:10 51.89427 0.26160 348 ft 1 kts 43°
2026-04-23 05:10 51.89409 0.26134 358 ft 4 kts 42°
2026-04-23 05:10 51.89390 0.26114 357 ft 4 kts 347°
2026-04-23 05:11 51.89374 0.26130 354 ft 4 kts 313°
2026-04-23 05:11 51.89364 0.26147 358 ft 0 kts 313°
2026-04-23 05:14 51.89368 0.26140 352 ft 4 kts 312°
2026-04-23 05:14 51.89410 0.26066 351 ft 11 kts 312°
2026-04-23 05:14 51.89463 0.25975 350 ft 11 kts 314°
2026-04-23 05:15 51.89513 0.25888 351 ft 11 kts 313°
2026-04-23 05:15 51.89512 0.25783 352 ft 11 kts 226°
2026-04-23 05:15 51.89446 0.25686 351 ft 15 kts 222°
2026-04-23 05:15 51.89358 0.25558 350 ft 19 kts 222°
2026-04-23 05:16 51.89263 0.25409 348 ft 19 kts 223°
2026-04-23 05:16 51.89168 0.25266 350 ft 18 kts 223°
2026-04-23 05:16 51.89075 0.25127 348 ft 19 kts 223°
2026-04-23 05:16 51.88969 0.24968 350 ft 25 kts 223°
2026-04-23 05:17 51.88828 0.24756 348 ft 29 kts 223°
2026-04-23 05:17 51.88687 0.24544 348 ft 27 kts 223°
2026-04-23 05:17 51.88554 0.24346 353 ft 25 kts 223°
2026-04-23 05:17 51.88418 0.24140 352 ft 29 kts 223°
2026-04-23 05:18 51.88271 0.23920 351 ft 28 kts 223°
2026-04-23 05:18 51.88133 0.23713 351 ft 26 kts 223°
2026-04-23 05:18 51.88004 0.23520 348 ft 24 kts 223°
2026-04-23 05:18 51.87884 0.23340 355 ft 23 kts 223°
2026-04-23 05:19 51.87771 0.23170 348 ft 22 kts 223°
2026-04-23 05:19 51.87741 0.23020 354 ft 13 kts 308°
2026-04-23 05:19 51.87800 0.22913 348 ft 13 kts 313°
2026-04-23 05:19 51.87861 0.22807 347 ft 14 kts 312°
2026-04-23 05:20 51.87929 0.22679 345 ft 10 kts 304°
2026-04-23 05:20 51.87969 0.22684 352 ft 7 kts 42°
2026-04-23 05:20 51.88096 0.22875 349 ft 59 kts 42°
2026-04-23 05:20 51.88586 0.23609 348 ft 130 kts 42°
2026-04-23 05:21 51.89336 0.24743 786 ft 149 kts 44°
2026-04-23 05:21 51.90093 0.25899 1640 ft 153 kts 46°
2026-04-23 05:21 51.90916 0.27143 2207 ft 178 kts 47°
2026-04-23 05:21 51.91903 0.28627 2657 ft 203 kts 45°
2026-04-23 05:22 51.93166 0.29764 3294 ft 217 kts 19°
2026-04-23 05:22 51.94729 0.29827 3923 ft 236 kts 349°
2026-04-23 05:22 51.96186 0.28532 4750 ft 246 kts 315°
2026-04-23 05:22 51.97007 0.26116 5429 ft 249 kts 281°
2026-04-23 05:23 51.97310 0.23314 6165 ft 260 kts 277°
2026-04-23 05:23 51.97577 0.20264 6617 ft 282 kts 277°
2026-04-23 05:23 51.97857 0.17076 7405 ft 289 kts 277°
2026-04-23 05:23 51.98167 0.13845 8312 ft 291 kts 278°
2026-04-23 05:24 51.98504 0.10599 9220 ft 293 kts 278°
2026-04-23 05:24 51.98851 0.07319 10108 ft 297 kts 276°
2026-04-23 05:24 51.98685 0.04001 10829 ft 302 kts 248°
2026-04-23 05:24 51.97522 0.01068 11072 ft 322 kts 225°
2026-04-23 05:25 51.95914 -0.01625 11423 ft 340 kts 223°
2026-04-23 05:25 51.94233 -0.04382 12129 ft 346 kts 223°
2026-04-23 05:25 51.92540 -0.07180 12981 ft 349 kts 224°
2026-04-23 05:25 51.90842 -0.10025 13836 ft 353 kts 224°
2026-04-23 05:26 51.89137 -0.12917 14641 ft 357 kts 225°
2026-04-23 05:26 51.87419 -0.15856 15406 ft 362 kts 225°
2026-04-23 05:26 51.85682 -0.18842 16183 ft 366 kts 225°
2026-04-23 05:26 51.83928 -0.21864 16960 ft 371 kts 225°
2026-04-23 05:27 51.82152 -0.24928 17716 ft 376 kts 225°
2026-04-23 05:27 51.80350 -0.28034 18453 ft 381 kts 225°
2026-04-23 05:27 51.78521 -0.31184 19132 ft 388 kts 226°
2026-04-23 05:27 51.76661 -0.34383 19755 ft 393 kts 226°
2026-04-23 05:28 51.74777 -0.37624 20376 ft 398 kts 227°
2026-04-23 05:28 51.72873 -0.40897 21036 ft 402 kts 227°
2026-04-23 05:28 51.70950 -0.44197 21689 ft 405 kts 227°
2026-04-23 05:28 51.69005 -0.47530 22287 ft 411 kts 228°
2026-04-23 05:29 51.67038 -0.50896 22788 ft 416 kts 228°
2026-04-23 05:29 51.64926 -0.54124 23332 ft 423 kts 218°
2026-04-23 05:29 51.62355 -0.56482 23863 ft 430 kts 202°
2026-04-23 05:29 51.59464 -0.57817 24355 ft 435 kts 190°
2026-04-23 05:30 51.56457 -0.58528 24840 ft 439 kts 188°
2026-04-23 05:30 51.53419 -0.59217 25299 ft 444 kts 188°
2026-04-23 05:30 51.50347 -0.59924 25747 ft 448 kts 188°
2026-04-23 05:30 51.47254 -0.60654 26218 ft 451 kts 189°
2026-04-23 05:31 51.44141 -0.61403 26671 ft 454 kts 189°
2026-04-23 05:31 51.41009 -0.62167 27117 ft 457 kts 189°
2026-04-23 05:31 51.37892 -0.62933 27535 ft 461 kts 189°
2026-04-23 05:31 51.34710 -0.63717 27946 ft 464 kts 189°
2026-04-23 05:32 51.31508 -0.64505 28339 ft 468 kts 189°
2026-04-23 05:32 51.28278 -0.65298 28736 ft 471 kts 189°
2026-04-23 05:32 51.25030 -0.66094 29133 ft 474 kts 189°
2026-04-23 05:32 51.21758 -0.66894 29527 ft 477 kts 189°
2026-04-23 05:33 51.18464 -0.67698 29901 ft 480 kts 189°
2026-04-23 05:33 51.15155 -0.68504 30299 ft 482 kts 189°
2026-04-23 05:33 51.11835 -0.69312 30754 ft 482 kts 189°
2026-04-23 05:33 51.08532 -0.70114 31267 ft 479 kts 190°
2026-04-23 05:34 51.05247 -0.70910 31793 ft 476 kts 190°
2026-04-23 05:34 51.01980 -0.71701 32272 ft 474 kts 190°
2026-04-23 05:34 50.98720 -0.72491 32705 ft 474 kts 191°
2026-04-23 05:34 50.95466 -0.73277 33141 ft 472 kts 191°
2026-04-23 05:35 50.92211 -0.74063 33407 ft 475 kts 191°
2026-04-23 05:35 50.85595 -0.74183 33390 ft 479 kts 168°
2026-04-23 05:35 50.82445 -0.72560 33384 ft 475 kts 155°
2026-04-23 05:36 50.79598 -0.69938 33404 ft 473 kts 146°
2026-04-23 05:36 50.74094 -0.64170 33386 ft 476 kts 146°
2026-04-23 05:37 50.68543 -0.58428 33378 ft 478 kts 146°
2026-04-23 05:37 50.63890 -0.53697 33370 ft 479 kts 146°
2026-04-23 05:38 50.57365 -0.47121 33366 ft 479 kts 147°
2026-04-23 05:38 50.52660 -0.42395 33368 ft 478 kts 147°
2026-04-23 05:39 50.47057 -0.36777 33371 ft 477 kts 147°
2026-04-23 05:39 50.41465 -0.31185 33357 ft 476 kts 147°
2026-04-23 05:40 50.35884 -0.25618 33366 ft 475 kts 147°
2026-04-23 05:40 50.30350 -0.20114 33357 ft 474 kts 147°
2026-04-23 05:41 50.24789 -0.14598 33359 ft 473 kts 147°
2026-04-23 05:41 50.19227 -0.09096 33344 ft 473 kts 147°
2026-04-23 05:42 50.13670 -0.03614 33354 ft 472 kts 147°
2026-04-23 05:42 50.07823 0.01012 33354 ft 473 kts 163°
2026-04-23 05:43 50.01440 0.03525 33351 ft 474 kts 168°
2026-04-23 05:43 49.95009 0.05929 33344 ft 476 kts 167°
2026-04-23 05:44 49.88566 0.08422 33343 ft 478 kts 167°
2026-04-23 05:44 49.82111 0.10955 33335 ft 479 kts 167°
2026-04-23 05:45 49.75645 0.13485 33327 ft 479 kts 167°
2026-04-23 05:45 49.69180 0.16003 33324 ft 479 kts 167°
2026-04-23 05:46 49.62728 0.18565 33317 ft 478 kts 166°
2026-04-23 05:46 49.56294 0.21172 33319 ft 477 kts 166°
2026-04-23 05:47 49.49876 0.23760 33321 ft 476 kts 166°
2026-04-23 05:47 49.43470 0.26326 33319 ft 475 kts 166°
2026-04-23 05:48 49.37079 0.28879 33320 ft 474 kts 166°
2026-04-23 05:48 49.30695 0.31423 33320 ft 474 kts 166°
2026-04-23 05:49 49.24338 0.34068 33322 ft 473 kts 166°
2026-04-23 05:49 49.18041 0.36747 33316 ft 473 kts 166°
2026-04-23 05:50 49.11700 0.39426 33314 ft 473 kts 166°
2026-04-23 05:50 49.05356 0.42086 33305 ft 473 kts 166°
2026-04-23 05:51 48.99006 0.44738 33333 ft 474 kts 166°
2026-04-23 05:51 48.92637 0.47391 33316 ft 475 kts 166°
2026-04-23 05:52 48.86253 0.50045 33307 ft 476 kts 166°
2026-04-23 05:52 48.79852 0.52699 33303 ft 477 kts 166°
2026-04-23 05:53 48.73431 0.55273 33302 ft 478 kts 167°
2026-04-23 05:53 48.66988 0.57772 33301 ft 478 kts 167°
2026-04-23 05:54 48.60546 0.60280 33291 ft 478 kts 167°
2026-04-23 05:54 48.54110 0.62792 33290 ft 477 kts 167°
2026-04-23 05:55 48.47687 0.65340 33281 ft 477 kts 166°
2026-04-23 05:55 48.41288 0.67961 33280 ft 476 kts 166°
2026-04-23 05:56 48.34898 0.70566 33280 ft 475 kts 167°
2026-04-23 05:56 48.28512 0.73150 33274 ft 475 kts 167°
2026-04-23 05:57 48.22132 0.75710 33260 ft 475 kts 167°
2026-04-23 05:57 48.15743 0.78219 33268 ft 475 kts 167°
2026-04-23 05:58 48.09348 0.80699 33263 ft 474 kts 169°
2026-04-23 05:58 48.02849 0.82367 33262 ft 473 kts 174°
2026-04-23 05:59 47.96362 0.83703 33243 ft 474 kts 175°
2026-04-23 05:59 47.89820 0.85089 33274 ft 476 kts 174°
2026-04-23 06:00 47.83262 0.86546 33247 ft 477 kts 174°
2026-04-23 06:00 47.76697 0.88032 33236 ft 477 kts 174°
2026-04-23 06:01 47.70129 0.89519 33245 ft 478 kts 174°
2026-04-23 06:01 47.63554 0.91000 33236 ft 478 kts 174°
2026-04-23 06:02 47.56974 0.92477 33223 ft 478 kts 174°
2026-04-23 06:02 47.50389 0.93950 33226 ft 479 kts 174°
2026-04-23 06:03 47.43797 0.95421 33223 ft 479 kts 174°
2026-04-23 06:03 47.37200 0.96889 33210 ft 480 kts 174°
2026-04-23 06:04 47.30594 0.98356 33220 ft 480 kts 174°
2026-04-23 06:04 47.23975 0.99822 33221 ft 481 kts 174°
2026-04-23 06:05 47.17344 1.01288 33200 ft 482 kts 174°
2026-04-23 06:05 47.10711 1.02749 33214 ft 482 kts 175°
2026-04-23 06:06 47.04075 1.04208 33207 ft 482 kts 175°
2026-04-23 06:06 46.97430 1.05666 33203 ft 483 kts 175°
2026-04-23 06:07 46.90792 1.07118 33197 ft 482 kts 175°
2026-04-23 06:07 46.84164 1.08564 33208 ft 481 kts 175°
2026-04-23 06:08 46.77585 1.09996 33200 ft 481 kts 175°
2026-04-23 06:08 46.70925 1.11442 33195 ft 481 kts 175°
2026-04-23 06:09 46.64311 1.12875 33193 ft 480 kts 175°
2026-04-23 06:09 46.57703 1.14302 33192 ft 480 kts 175°
2026-04-23 06:10 46.51101 1.15725 33179 ft 479 kts 175°
2026-04-23 06:10 46.44557 1.17132 33185 ft 478 kts 175°
2026-04-23 06:11 46.37973 1.18544 33186 ft 478 kts 175°
2026-04-23 06:11 46.31396 1.19951 33180 ft 477 kts 175°
2026-04-23 06:12 46.24819 1.21354 33186 ft 478 kts 175°
2026-04-23 06:12 46.14939 1.23456 33159 ft 479 kts 175°
2026-04-23 06:13 46.08351 1.24854 33179 ft 478 kts 175°
2026-04-23 06:13 46.01766 1.26248 33179 ft 478 kts 175°
2026-04-23 06:14 45.95187 1.27636 33174 ft 478 kts 175°
2026-04-23 06:14 45.88614 1.29021 33180 ft 477 kts 175°
2026-04-23 06:15 45.82050 1.30401 33184 ft 476 kts 175°
2026-04-23 06:15 45.75493 1.31775 33172 ft 476 kts 175°
2026-04-23 06:16 45.68942 1.33145 33165 ft 475 kts 175°
2026-04-23 06:16 45.62397 1.34510 33161 ft 475 kts 175°
2026-04-23 06:17 45.55858 1.35872 33150 ft 475 kts 175°
2026-04-23 06:17 45.49327 1.37228 33151 ft 474 kts 175°
2026-04-23 06:18 45.42838 1.38945 33170 ft 475 kts 171°
2026-04-23 06:18 45.36445 1.41058 33152 ft 475 kts 170°
2026-04-23 06:19 45.30016 1.43198 33161 ft 474 kts 170°
2026-04-23 06:19 45.23592 1.45283 33156 ft 474 kts 170°
2026-04-23 06:20 45.17161 1.47340 33158 ft 474 kts 170°
2026-04-23 06:20 45.10731 1.49387 33158 ft 474 kts 170°
2026-04-23 06:21 45.04300 1.51432 33156 ft 474 kts 170°
2026-04-23 06:21 44.97870 1.53473 33162 ft 474 kts 171°
2026-04-23 06:22 44.91432 1.55513 33160 ft 474 kts 171°
2026-04-23 06:22 44.84985 1.57550 33158 ft 475 kts 171°
2026-04-23 06:23 44.78534 1.59584 33159 ft 475 kts 171°
2026-04-23 06:23 44.72074 1.61616 33163 ft 476 kts 171°
2026-04-23 06:24 44.65613 1.63644 33159 ft 476 kts 171°
2026-04-23 06:24 44.59150 1.65668 33148 ft 476 kts 171°
2026-04-23 06:25 44.53781 1.67347 33152 ft 475 kts 171°
2026-04-23 06:25 44.47332 1.69358 33168 ft 475 kts 171°
2026-04-23 06:26 44.40884 1.71365 33163 ft 475 kts 171°
2026-04-23 06:26 44.34448 1.73363 33162 ft 473 kts 171°
2026-04-23 06:27 44.28018 1.75301 33159 ft 471 kts 173°
2026-04-23 06:27 44.21556 1.76759 33158 ft 469 kts 175°
2026-04-23 06:28 44.15145 1.78092 33164 ft 469 kts 174°
2026-04-23 06:28 44.08702 1.79486 33154 ft 468 kts 174°
2026-04-23 06:29 44.02268 1.80907 33153 ft 468 kts 174°
2026-04-23 06:29 43.95824 1.82003 33151 ft 463 kts 183°
2026-04-23 06:30 43.89394 1.81811 33150 ft 462 kts 186°
2026-04-23 06:30 43.82969 1.81506 33156 ft 462 kts 186°
2026-04-23 06:31 43.76538 1.81270 33152 ft 463 kts 185°
2026-04-23 06:31 43.70094 1.81084 33147 ft 463 kts 185°
2026-04-23 06:32 43.63652 1.80915 33153 ft 463 kts 185°
2026-04-23 06:32 43.57199 1.80746 33143 ft 464 kts 185°
2026-04-23 06:33 43.50751 1.80576 33149 ft 464 kts 185°
2026-04-23 06:33 43.44293 1.80404 33146 ft 464 kts 185°
2026-04-23 06:34 43.37833 1.80232 33138 ft 464 kts 185°
2026-04-23 06:34 43.31374 1.80061 33145 ft 464 kts 185°
2026-04-23 06:35 43.24906 1.79890 33139 ft 465 kts 185°
2026-04-23 06:35 43.18436 1.79719 33130 ft 465 kts 185°
2026-04-23 06:36 43.11949 1.79547 32864 ft 468 kts 185°
2026-04-23 06:36 43.08703 1.79463 32608 ft 464 kts 185°
2026-04-23 06:36 43.05486 1.79380 32345 ft 461 kts 185°
2026-04-23 06:37 43.02286 1.79297 32085 ft 459 kts 185°
2026-04-23 06:37 42.99120 1.79216 31664 ft 452 kts 185°
2026-04-23 06:37 42.96000 1.79137 31240 ft 446 kts 186°
2026-04-23 06:37 42.92910 1.79057 30796 ft 442 kts 186°
2026-04-23 06:38 42.89850 1.78978 30360 ft 438 kts 186°
2026-04-23 06:38 42.86860 1.78899 29883 ft 434 kts 186°
2026-04-23 06:38 42.83859 1.78821 29385 ft 429 kts 186°
2026-04-23 06:38 42.80898 1.78744 28937 ft 423 kts 186°
2026-04-23 06:39 42.77980 1.78669 28494 ft 416 kts 186°
2026-04-23 06:39 42.75109 1.78543 27971 ft 411 kts 189°
2026-04-23 06:39 42.72280 1.78150 27520 ft 406 kts 192°
2026-04-23 06:39 42.69492 1.77654 27073 ft 402 kts 193°
2026-04-23 06:40 42.66736 1.77134 26625 ft 398 kts 193°
2026-04-23 06:40 42.64006 1.76621 26237 ft 395 kts 192°
2026-04-23 06:40 42.61283 1.76118 25785 ft 394 kts 192°
2026-04-23 06:40 42.58568 1.75629 25373 ft 394 kts 192°
2026-04-23 06:41 42.55816 1.75142 24946 ft 403 kts 192°
2026-04-23 06:41 42.53026 1.74655 24510 ft 405 kts 192°
2026-04-23 06:41 42.50234 1.74177 24063 ft 403 kts 191°
2026-04-23 06:41 42.47465 1.73706 23595 ft 399 kts 191°
2026-04-23 06:42 42.44724 1.73242 23081 ft 395 kts 191°
2026-04-23 06:42 42.42019 1.72785 22661 ft 389 kts 191°
2026-04-23 06:42 42.39345 1.72333 22201 ft 385 kts 191°
2026-04-23 06:42 42.36699 1.71884 21775 ft 381 kts 191°
2026-04-23 06:43 42.34079 1.71440 21354 ft 378 kts 191°
2026-04-23 06:43 42.31484 1.71000 20958 ft 374 kts 191°
2026-04-23 06:43 42.28909 1.70563 20550 ft 372 kts 191°
2026-04-23 06:43 42.26353 1.70130 20129 ft 369 kts 191°
2026-04-23 06:44 42.23821 1.69702 19729 ft 365 kts 190°
2026-04-23 06:44 42.21308 1.69277 19314 ft 362 kts 190°
2026-04-23 06:44 42.18816 1.68855 18919 ft 359 kts 190°
2026-04-23 06:44 42.16346 1.68438 18525 ft 356 kts 190°
2026-04-23 06:45 42.13894 1.68024 18084 ft 354 kts 190°
2026-04-23 06:45 42.11456 1.67614 17636 ft 352 kts 190°
2026-04-23 06:45 42.09035 1.67207 17214 ft 349 kts 190°
2026-04-23 06:45 42.06670 1.66809 16819 ft 346 kts 190°
2026-04-23 06:46 42.04292 1.66410 16424 ft 343 kts 190°
2026-04-23 06:46 42.01929 1.66013 16023 ft 341 kts 190°
2026-04-23 06:46 41.99581 1.65620 15626 ft 339 kts 190°
2026-04-23 06:46 41.97253 1.65228 15236 ft 336 kts 190°
2026-04-23 06:47 41.94938 1.64840 14850 ft 334 kts 190°
2026-04-23 06:47 41.92635 1.64454 14463 ft 332 kts 190°
2026-04-23 06:47 41.90351 1.64072 14081 ft 330 kts 190°
2026-04-23 06:47 41.88070 1.63690 13648 ft 329 kts 190°
2026-04-23 06:48 41.85805 1.63312 13242 ft 327 kts 190°
2026-04-23 06:48 41.83558 1.62938 12854 ft 324 kts 190°
2026-04-23 06:48 41.81327 1.62566 12465 ft 322 kts 190°
2026-04-23 06:48 41.79110 1.62195 12088 ft 320 kts 190°
2026-04-23 06:49 41.76912 1.61829 11704 ft 317 kts 190°
2026-04-23 06:49 41.74733 1.61467 11335 ft 314 kts 190°
2026-04-23 06:49 41.72573 1.61108 10970 ft 311 kts 190°
2026-04-23 06:49 41.70429 1.60754 10605 ft 309 kts 190°
2026-04-23 06:50 41.68322 1.60405 10449 ft 300 kts 190°
2026-04-23 06:50 41.66285 1.60068 10288 ft 290 kts 190°
2026-04-23 06:50 41.64318 1.59743 10149 ft 281 kts 190°
2026-04-23 06:50 41.62378 1.59419 9834 ft 280 kts 190°
2026-04-23 06:51 41.60449 1.59097 9517 ft 279 kts 190°
2026-04-23 06:51 41.58529 1.58776 9212 ft 277 kts 189°
2026-04-23 06:51 41.56604 1.58456 8794 ft 279 kts 189°
2026-04-23 06:51 41.54683 1.58137 8481 ft 278 kts 189°
2026-04-23 06:52 41.52770 1.57821 8169 ft 276 kts 189°
2026-04-23 06:52 41.50893 1.57511 7867 ft 274 kts 189°
2026-04-23 06:52 41.49005 1.57199 7564 ft 273 kts 188°
2026-04-23 06:52 41.47129 1.56889 7268 ft 271 kts 188°
2026-04-23 06:53 41.45263 1.56581 6973 ft 269 kts 187°
2026-04-23 06:53 41.43407 1.56276 6687 ft 268 kts 187°
2026-04-23 06:53 41.41569 1.55973 6491 ft 262 kts 186°
2026-04-23 06:53 41.39788 1.55680 6354 ft 254 kts 186°
2026-04-23 06:54 41.38055 1.55395 6227 ft 247 kts 186°
2026-04-23 06:54 41.36375 1.55117 6123 ft 240 kts 186°
2026-04-23 06:54 41.34749 1.54797 6000 ft 234 kts 195°
2026-04-23 06:54 41.33380 1.53657 5813 ft 237 kts 223°
2026-04-23 06:55 41.32201 1.52096 5583 ft 242 kts 224°
2026-04-23 06:55 41.31010 1.50506 5324 ft 243 kts 223°
2026-04-23 06:55 41.29816 1.48911 5064 ft 243 kts 222°
2026-04-23 06:55 41.28621 1.47324 4799 ft 243 kts 223°
2026-04-23 06:56 41.27426 1.45738 4551 ft 241 kts 223°
2026-04-23 06:56 41.26254 1.44185 4295 ft 235 kts 222°
2026-04-23 06:56 41.25111 1.42671 4029 ft 229 kts 222°
2026-04-23 06:56 41.23995 1.41198 3782 ft 223 kts 221°
2026-04-23 06:57 41.22905 1.39760 3529 ft 218 kts 221°
2026-04-23 06:57 41.21846 1.38364 3300 ft 211 kts 221°
2026-04-23 06:57 41.20821 1.37011 3136 ft 204 kts 222°
2026-04-23 06:57 41.20106 1.35426 2950 ft 200 kts 253°
2026-04-23 06:58 41.19691 1.33677 2681 ft 197 kts 247°
2026-04-23 06:58 41.19189 1.32000 2430 ft 194 kts 246°
2026-04-23 06:58 41.18698 1.30341 2178 ft 192 kts 247°
2026-04-23 06:58 41.18219 1.28697 1916 ft 191 kts 248°
2026-04-23 06:59 41.17751 1.27085 1658 ft 187 kts 248°
2026-04-23 06:59 41.17295 1.25519 1440 ft 175 kts 248°
2026-04-23 06:59 41.16872 1.24063 1181 ft 165 kts 248°
2026-04-23 06:59 41.16456 1.22633 961 ft 166 kts 248°
2026-04-23 07:00 41.16049 1.21241 735 ft 160 kts 249°
2026-04-23 07:00 41.15645 1.19860 540 ft 157 kts 251°
2026-04-23 07:00 41.15262 1.18509 319 ft 156 kts 250°
2026-04-23 07:00 41.14889 1.17231 242 ft 130 kts 248°
2026-04-23 07:01 41.14645 1.16395 242 ft 54 kts 249°
2026-04-23 07:01 41.14554 1.16087 242 ft 28 kts 249°
2026-04-23 07:01 41.14522 1.15945 242 ft 9 kts 285°
2026-04-23 07:01 41.14537 1.15920 242 ft 0 kts 322°
2026-04-23 07:02 41.14563 1.15900 242 ft 9 kts 337°
2026-04-23 07:02 41.14633 1.15863 242 ft 11 kts 326°
2026-04-23 07:02 41.14641 1.15770 242 ft 12 kts 240°
2026-04-23 07:02 41.14614 1.15682 242 ft 7 kts 249°
2026-04-23 07:03 41.14601 1.15637 242 ft 2 kts 249°
2026-04-23 07:03 41.14599 1.15628 242 ft 0 kts 249°
2026-04-23 07:03 41.14599 1.15615 242 ft 5 kts 278°
2026-04-23 07:03 41.14634 1.15576 242 ft 6 kts 339°
2026-04-23 07:04 41.14661 1.15562 242 ft 3 kts 339°
2026-04-23 07:04 41.14662 1.15562 242 ft 0 kts 339°